GOES 17

Last updated on Sun Dec 07 2025 00:02:22 GMT+0000 (Coordinated Universal Time)

1 43226U 18022A 25340.45958424 -.00000175 00000+0 00000+0 0 9997 2 43226 0.4428 89.2402 0003520 183.7005 238.5103 1.00270924 28496
UTC large
Height (km)
Speed (km/s)
/
Latitude / Longitude
Inclination (degrees)
Orbital Period (minutes)
Azimuth
Elevation
Range (km)
Doppler Factor

Next 0 passes for location: London (51.5072 / 0.1276)

Sorry there are no passes over London.